• In Deutschland
  • Länderverzeichnis
  • Für 7 Tage
  • Wassertemperatur
  • Satellitenkarten
  • Wetterkarte
  • Widgets
  • user-avatar
    Anmelden

    Stündliche Wetter Bobo-Dioulasso

    Heute, 21 Oktober, Sonntag

    Zeit Temperatur Niederschläge Wind Luftdruck Luftfeuchtigkeit
    00:00 +31°C° 0 mm 1 m/S 721 mmHg 44%
    01:00 +30°C° 0 mm 1 m/S 721 mmHg 46%
    02:00 +29°C° 0 mm 1 m/S 721 mmHg 48%
    03:00 +29°C° 0 mm 1 m/S 720 mmHg 50%
    04:00 +28°C° 0 mm 1 m/S 721 mmHg 52%
    05:00 +28°C° 0 mm 1 m/S 721 mmHg 54%
    06:00 +25°C° 0 mm 0 m/S 721 mmHg 59%
    07:00 +28°C° 0 mm 0 m/S 721 mmHg 54%
    08:00 +32°C° 0 mm 1 m/S 722 mmHg 49%
    09:00 +34°C° 0 mm 1 m/S 722 mmHg 44%
    10:00 +35°C° 0 mm 1 m/S 722 mmHg 38%
    11:00 +38°C° 0 mm 2 m/S 722 mmHg 32%
    12:00 +39°C° 0 mm 2 m/S 721 mmHg 28%
    13:00 +39°C° 0 mm 3 m/S 721 mmHg 26%
    14:00 +40°C° 0 mm 4 m/S 721 mmHg 24%
    15:00 +41°C° 0 mm 4 m/S 720 mmHg 22%
    16:00 +38°C° 0 mm 3 m/S 720 mmHg 25%
    17:00 +36°C° 0 mm 3 m/S 720 mmHg 29%
    18:00 +34°C° 0 mm 2 m/S 720 mmHg 32%
    19:00 +32°C° 0 mm 2 m/S 721 mmHg 34%
    20:00 +31°C° 0 mm 2 m/S 721 mmHg 36%
    21:00 +30°C° 0 mm 1 m/S 722 mmHg 38%
    22:00 +30°C° 0 mm 1 m/S 722 mmHg 40%
    23:00 +29°C° 0 mm 1 m/S 721 mmHg 43%

    Morgen, 22 Oktober, Montag

    Zeit Temperatur Niederschläge Wind Luftdruck Luftfeuchtigkeit
    00:00 +29°C° 0 mm 2 m/S 721 mmHg 45%
    01:00 +28°C° 0 mm 1 m/S 721 mmHg 50%
    02:00 +27°C° 0 mm 1 m/S 721 mmHg 54%
    03:00 +27°C° 0 mm 1 m/S 721 mmHg 59%
    04:00 +27°C° 0 mm 1 m/S 721 mmHg 62%
    05:00 +26°C° 0 mm 1 m/S 721 mmHg 65%
    06:00 +26°C° 0 mm 1 m/S 721 mmHg 68%
    07:00 +28°C° 0 mm 2 m/S 722 mmHg 64%
    08:00 +30°C° 0 mm 2 m/S 723 mmHg 60%
    09:00 +31°C° 0 mm 3 m/S 723 mmHg 56%
    10:00 +35°C° 0 mm 2 m/S 723 mmHg 47%
    11:00 +37°C° 0 mm 1 m/S 723 mmHg 39%
    12:00 +37°C° 0 mm 0 m/S 723 mmHg 30%
    13:00 +40°C° 0 mm 1 m/S 722 mmHg 28%
    14:00 +40°C° 0 mm 2 m/S 721 mmHg 25%
    15:00 +40°C° 0 mm 2 m/S 720 mmHg 22%
    16:00 +38°C° 0 mm 2 m/S 720 mmHg 25%
    17:00 +35°C° 0 mm 1 m/S 720 mmHg 28%
    18:00 +33°C° 0 mm 1 m/S 720 mmHg 30%
    19:00 +32°C° 0 mm 1 m/S 721 mmHg 32%
    20:00 +29°C° 0 mm 0 m/S 721 mmHg 34%
    21:00 +28°C° 0 mm 0 m/S 722 mmHg 35%
    22:00 +30°C° 0 mm 1 m/S 722 mmHg 37%
    23:00 +29°C° 0 mm 1 m/S 722 mmHg 39%

    übermorgen, 23 Oktober, Dienstag

    Zeit Temperatur Niederschläge Wind Luftdruck Luftfeuchtigkeit
    00:00 +29°C° 0 mm 2 m/S 722 mmHg 41%
    01:00 +28°C° 0 mm 1 m/S 722 mmHg 44%
    02:00 +28°C° 0 mm 1 m/S 722 mmHg 47%
    03:00 +27°C° 0 mm 1 m/S 722 mmHg 50%
    04:00 +27°C° 0 mm 1 m/S 722 mmHg 53%
    05:00 +26°C° 0 mm 1 m/S 722 mmHg 56%
    06:00 +26°C° 0 mm 1 m/S 722 mmHg 59%
    07:00 +27°C° 0 mm 2 m/S 722 mmHg 57%
    08:00 +29°C° 0 mm 2 m/S 723 mmHg 56%
    09:00 +31°C° 0 mm 2 m/S 724 mmHg 54%
    10:00 +34°C° 0 mm 2 m/S 723 mmHg 46%
    11:00 +36°C° 0 mm 2 m/S 723 mmHg 39%
    12:00 +39°C° 0 mm 2 m/S 722 mmHg 32%
    13:00 +39°C° 0 mm 2 m/S 722 mmHg 27%
    14:00 +40°C° 0 mm 2 m/S 721 mmHg 23%
    15:00 +40°C° 0 mm 2 m/S 720 mmHg 19%
    16:00 +38°C° 0 mm 2 m/S 720 mmHg 22%
    17:00 +35°C° 0 mm 1 m/S 720 mmHg 25%
    18:00 +31°C° 0 mm 0 m/S 720 mmHg 27%
    19:00 +30°C° 0 mm 0 m/S 721 mmHg 29%
    20:00 +29°C° 0 mm 0 m/S 721 mmHg 30%
    21:00 +28°C° 0 mm 0 m/S 722 mmHg 31%
    22:00 +28°C° 0 mm 0 m/S 722 mmHg 32%
    23:00 +30°C° 0 mm 1 m/S 722 mmHg 33%

    24 Oktober, Mittwoch

    Zeit Temperatur Niederschläge Wind Luftdruck Luftfeuchtigkeit
    00:00 +29°C° 0 mm 1 m/S 722 mmHg 33%
    01:00 +29°C° 0 mm 1 m/S 721 mmHg 37%
    02:00 +28°C° 0 mm 1 m/S 721 mmHg 41%
    03:00 +27°C° 0 mm 1 m/S 720 mmHg 44%
    04:00 +27°C° 0 mm 1 m/S 720 mmHg 49%
    05:00 +26°C° 0 mm 1 m/S 720 mmHg 54%
    06:00 +26°C° 0 mm 1 m/S 721 mmHg 58%
    07:00 +28°C° 0 mm 2 m/S 721 mmHg 56%
    08:00 +30°C° 0 mm 2 m/S 722 mmHg 53%
    09:00 +33°C° 0 mm 3 m/S 723 mmHg 50%
    10:00 +35°C° 0 mm 2 m/S 722 mmHg 43%
    11:00 +37°C° 0 mm 2 m/S 722 mmHg 37%
    12:00 +39°C° 0 mm 2 m/S 722 mmHg 31%
    13:00 +40°C° 0 mm 1 m/S 721 mmHg 28%
    14:00 +41°C° 0 mm 1 m/S 720 mmHg 24%
    15:00 +41°C° 0 mm 1 m/S 720 mmHg 21%
    16:00 +39°C° 0 mm 1 m/S 719 mmHg 25%
    17:00 +36°C° 0 mm 1 m/S 719 mmHg 28%
    18:00 +34°C° 0 mm 1 m/S 719 mmHg 31%
    19:00 +34°C° 0 mm 1 m/S 720 mmHg 33%
    20:00 +33°C° 0 mm 1 m/S 720 mmHg 35%
    21:00 +32°C° 0 mm 1 m/S 721 mmHg 37%
    22:00 +32°C° 0 mm 1 m/S 721 mmHg 41%
    23:00 +31°C° 0 mm 2 m/S 721 mmHg 45%

    25 Oktober, Donnerstag

    Zeit Temperatur Niederschläge Wind Luftdruck Luftfeuchtigkeit
    00:00 +31°C° 0 mm 2 m/S 721 mmHg 49%
    01:00 +30°C° 0 mm 3 m/S 721 mmHg 57%
    02:00 +29°C° 0 mm 3 m/S 720 mmHg 65%
    03:00 +28°C° 0 mm 3 m/S 720 mmHg 74%
    04:00 +28°C° 0 mm 4 m/S 720 mmHg 76%
    05:00 +28°C° 0 mm 4 m/S 721 mmHg 78%
    06:00 +27°C° 0 mm 4 m/S 721 mmHg 80%
    07:00 +28°C° 0 mm 4 m/S 721 mmHg 75%
    08:00 +30°C° 0 mm 4 m/S 722 mmHg 70%
    09:00 +32°C° 0 mm 4 m/S 722 mmHg 65%
    10:00 +34°C° 0 mm 3 m/S 722 mmHg 57%
    11:00 +36°C° 0 mm 3 m/S 722 mmHg 49%
    12:00 +38°C° 0 mm 3 m/S 721 mmHg 41%
    13:00 +38°C° 0 mm 3 m/S 721 mmHg 37%
    14:00 +39°C° 0 mm 2 m/S 720 mmHg 34%
    15:00 +40°C° 0 mm 2 m/S 719 mmHg 30%
    16:00 +37°C° 0 mm 1 m/S 720 mmHg 32%
    17:00 +36°C° 0 mm 1 m/S 720 mmHg 35%
    18:00 +35°C° 0 mm 1 m/S 720 mmHg 37%
    19:00 +34°C° 0.2 mm 1 m/S 720 mmHg 40%
    20:00 +33°C° 0.2 mm 1 m/S 721 mmHg 43%
    21:00 +32°C° 0.2 mm 1 m/S 721 mmHg 46%
    22:00 +31°C° 0.1 mm 1 m/S 721 mmHg 50%
    23:00 +30°C° 0.1 mm 2 m/S 721 mmHg 54%

    26 Oktober, Freitag

    Zeit Temperatur Niederschläge Wind Luftdruck Luftfeuchtigkeit
    00:00 +30°C° 0.1 mm 2 m/S 721 mmHg 58%
    01:00 +29°C° 0.3 mm 2 m/S 721 mmHg 63%
    02:00 +28°C° 0.3 mm 2 m/S 720 mmHg 68%
    03:00 +27°C° 0.3 mm 2 m/S 720 mmHg 73%
    04:00 +27°C° 0.3 mm 2 m/S 721 mmHg 75%
    05:00 +27°C° 0.3 mm 1 m/S 721 mmHg 77%
    06:00 +26°C° 0.3 mm 1 m/S 721 mmHg 79%
    07:00 +28°C° 0 mm 1 m/S 722 mmHg 72%
    08:00 +29°C° 0 mm 2 m/S 722 mmHg 65%
    09:00 +31°C° 0 mm 2 m/S 722 mmHg 58%
    10:00 +34°C° 0 mm 2 m/S 722 mmHg 51%
    11:00 +36°C° 0 mm 2 m/S 722 mmHg 43%
    12:00 +38°C° 0 mm 3 m/S 721 mmHg 36%
    13:00 +39°C° 0 mm 2 m/S 721 mmHg 34%
    14:00 +39°C° 0 mm 2 m/S 720 mmHg 32%
    15:00 +40°C° 0 mm 1 m/S 720 mmHg 30%
    16:00 +37°C° 0 mm 1 m/S 720 mmHg 34%
    17:00 +37°C° 0 mm 2 m/S 720 mmHg 38%
    18:00 +35°C° 0 mm 2 m/S 721 mmHg 42%
    19:00 +34°C° 0.1 mm 2 m/S 721 mmHg 46%
    20:00 +32°C° 0.1 mm 2 m/S 721 mmHg 50%
    21:00 +31°C° 0.1 mm 2 m/S 722 mmHg 55%
    22:00 +31°C° 0 mm 2 m/S 722 mmHg 57%
    23:00 +30°C° 0 mm 2 m/S 722 mmHg 59%
    Mehr zeigen